Time,TemperatureF,DewpointF,PressureIn,WindDirection,WindDirectionDegrees,WindSpeedMPH,WindSpeedGustMPH,Humidity,HourlyPrecipIn,Conditions,Clouds,dailyrainin,SoftwareType,DateUTC
2013-08-23 00:12:00,77.0,51.0,29.80,South,180,19.0,23.0,40,0.00,,,0.00,,2013-08-23 06:12:00,
2013-08-23 00:22:00,77.0,51.0,29.80,South,173,20.0,25.0,41,0.00,,,0.00,,2013-08-23 06:22:00,
2013-08-23 00:42:00,77.0,51.0,29.80,South,181,21.0,27.0,41,0.00,,,0.00,,2013-08-23 06:42:00,
2013-08-23 00:52:00,77.0,51.0,29.79,South,178,19.0,26.0,41,0.00,,,0.00,,2013-08-23 06:52:00,
2013-08-23 01:12:00,77.0,51.0,29.79,South,178,19.0,24.0,41,0.00,,,0.00,,2013-08-23 07:12:00,
2013-08-23 01:22:00,77.0,51.0,29.79,South,179,17.0,23.0,41,0.00,,,0.00,,2013-08-23 07:22:00,
2013-08-23 01:42:00,76.0,51.0,29.79,South,182,15.0,21.0,42,0.00,,,0.00,,2013-08-23 07:42:00,
2013-08-23 01:52:00,76.0,51.0,29.79,South,188,18.0,23.0,42,0.00,,,0.00,,2013-08-23 07:52:00,
2013-08-23 02:13:00,75.0,52.0,29.79,South,181,17.0,25.0,44,0.00,,,0.00,,2013-08-23 08:13:00,
2013-08-23 02:22:00,75.0,52.0,29.79,South,178,17.0,23.0,45,0.00,,,0.00,,2013-08-23 08:22:00,
2013-08-23 02:42:00,75.0,53.0,29.79,South,178,15.0,19.0,46,0.00,,,0.00,,2013-08-23 08:42:00,
2013-08-23 02:52:00,75.0,53.0,29.78,South,180,17.0,20.0,46,0.00,,,0.00,,2013-08-23 08:52:00,
2013-08-23 03:12:00,74.0,52.0,29.78,South,184,18.0,22.0,46,0.00,,,0.00,,2013-08-23 09:12:00,
2013-08-23 03:21:00,74.0,52.0,29.78,South,183,17.0,20.0,46,0.00,,,0.00,,2013-08-23 09:21:00,
2013-08-23 03:43:00,74.0,52.0,29.77,South,188,18.0,21.0,46,0.00,,,0.00,,2013-08-23 09:43:00,
2013-08-23 03:53:00,74.0,51.0,29.78,South,185,17.0,20.0,45,0.00,,,0.00,,2013-08-23 09:53:00,
2013-08-23 04:13:00,74.0,52.0,29.78,South,186,17.0,20.0,46,0.00,,,0.00,,2013-08-23 10:13:00,
2013-08-23 04:23:00,74.0,52.0,29.78,South,187,15.0,19.0,46,0.00,,,0.00,,2013-08-23 10:23:00,
2013-08-23 04:42:00,74.0,52.0,29.77,South,180,14.0,17.0,46,0.00,,,0.00,,2013-08-23 10:42:00,
2013-08-23 04:52:00,73.0,51.0,29.77,South,185,15.0,19.0,46,0.00,,,0.00,,2013-08-23 10:52:00,
2013-08-23 05:11:00,73.0,50.0,29.77,South,188,16.0,18.0,45,0.00,,,0.00,,2013-08-23 11:11:00,
2013-08-23 05:22:00,74.0,51.0,29.78,South,191,15.0,18.0,45,0.00,,,0.00,,2013-08-23 11:22:00,
2013-08-23 05:42:00,73.0,51.0,29.78,South,187,14.0,17.0,46,0.00,,,0.00,,2013-08-23 11:42:00,
2013-08-23 05:53:00,72.0,51.0,29.79,South,183,10.0,15.0,47,0.00,,,0.00,,2013-08-23 11:53:00,
2013-08-23 06:11:00,72.0,51.0,29.79,South,178,7.0,12.0,48,0.00,,,0.00,,2013-08-23 12:11:00,
2013-08-23 06:22:00,72.0,51.0,29.80,South,173,4.0,8.0,48,0.00,,,0.00,,2013-08-23 12:22:00,
2013-08-23 06:42:00,72.0,51.0,29.80,South,172,1.0,8.0,48,0.00,,,0.00,,2013-08-23 12:42:00,
2013-08-23 06:52:00,71.0,51.0,29.81,South,172,0.0,3.0,50,0.00,,,0.00,,2013-08-23 12:52:00,
2013-08-23 07:12:00,72.0,52.0,29.82,South,187,3.0,7.0,49,0.00,,,0.00,,2013-08-23 13:12:00,
2013-08-23 07:22:00,71.0,52.0,29.83,SSW,196,5.0,7.0,51,0.00,,,0.00,,2013-08-23 13:22:00,
2013-08-23 07:42:00,71.0,52.0,29.83,SSW,201,5.0,7.0,51,0.00,,,0.00,,2013-08-23 13:42:00,
2013-08-23 07:52:00,71.0,52.0,29.83,SSW,201,5.0,7.0,51,0.00,,,0.00,,2013-08-23 13:52:00,
2013-08-23 08:12:00,71.0,52.0,29.83,SSW,205,3.0,7.0,51,0.00,,,0.00,,2013-08-23 14:12:00,
2013-08-23 08:21:00,71.0,52.0,29.83,SSW,205,3.0,7.0,51,0.00,,,0.00,,2013-08-23 14:21:00,
2013-08-23 08:42:00,72.0,53.0,29.84,SSW,205,2.0,5.0,51,0.00,,,0.00,,2013-08-23 14:42:00,
2013-08-23 08:52:00,73.0,54.0,29.83,SSW,200,1.0,3.0,51,0.00,,,0.00,,2013-08-23 14:52:00,
2013-08-23 09:11:00,73.0,54.0,29.84,SSW,200,1.0,3.0,52,0.00,,,0.00,,2013-08-23 15:11:00,
2013-08-23 09:22:00,72.0,53.0,29.84,SSW,200,1.0,3.0,52,0.00,,,0.00,,2013-08-23 15:22:00,
2013-08-23 09:44:00,72.0,53.0,29.84,SSW,200,1.0,4.0,51,0.00,,,0.00,,2013-08-23 15:44:00,
2013-08-23 09:54:00,73.0,53.0,29.84,SSW,200,1.0,4.0,50,0.00,,,0.00,,2013-08-23 15:54:00,
2013-08-23 10:13:00,76.0,53.0,29.85,SSW,200,2.0,6.0,45,0.00,,,0.00,,2013-08-23 16:13:00,
2013-08-23 10:24:00,75.0,54.0,29.85,SSW,200,0.0,3.0,48,0.00,,,0.00,,2013-08-23 16:24:00,
2013-08-23 10:42:00,76.0,53.0,29.85,SSW,200,2.0,4.0,45,0.00,,,0.00,,2013-08-23 16:42:00,
2013-08-23 10:53:00,76.0,52.0,29.85,SSE,167,5.0,10.0,44,0.00,,,0.00,,2013-08-23 16:53:00,
2013-08-23 11:13:00,77.0,53.0,29.85,South,180,5.0,10.0,44,0.00,,,0.00,,2013-08-23 17:13:00,
2013-08-23 11:24:00,77.0,53.0,29.85,West,263,7.0,14.0,44,0.00,,,0.00,,2013-08-23 17:24:00,
2013-08-23 11:43:00,77.0,54.0,29.85,West,276,5.0,10.0,45,0.00,,,0.00,,2013-08-23 17:43:00,
2013-08-23 11:53:00,77.0,52.0,29.84,SSW,198,8.0,14.0,42,0.00,,,0.00,,2013-08-23 17:53:00,
2013-08-23 12:12:00,78.0,52.0,29.84,SW,227,9.0,13.0,41,0.00,,,0.00,,2013-08-23 18:12:00,
2013-08-23 12:22:00,78.0,52.0,29.83,WSW,242,6.0,14.0,40,0.00,,,0.00,,2013-08-23 18:22:00,
2013-08-23 12:42:00,78.0,52.0,29.83,SSW,212,2.0,10.0,41,0.00,,,0.00,,2013-08-23 18:42:00,
2013-08-23 12:52:00,79.0,53.0,29.83,West,278,6.0,14.0,40,0.00,,,0.00,,2013-08-23 18:52:00,
2013-08-23 13:12:00,81.0,54.0,29.82,SW,215,6.0,17.0,39,0.00,,,0.00,,2013-08-23 19:12:00,
2013-08-23 13:22:00,80.0,51.0,29.81,SW,217,10.0,23.0,36,0.00,,,0.00,,2013-08-23 19:22:00,
2013-08-23 13:42:00,80.0,50.0,29.80,South,188,19.0,31.0,35,0.00,,,0.00,,2013-08-23 19:42:00,
2013-08-23 13:52:00,81.0,51.0,29.80,South,188,20.0,27.0,35,0.00,,,0.00,,2013-08-23 19:52:00,
2013-08-23 14:12:00,81.0,50.0,29.79,South,178,16.0,28.0,34,0.00,,,0.00,,2013-08-23 20:12:00,
2013-08-23 14:22:00,82.0,50.0,29.78,South,188,22.0,28.0,33,0.00,,,0.00,,2013-08-23 20:22:00,
2013-08-23 14:42:00,81.0,50.0,29.78,South,175,13.0,23.0,34,0.00,,,0.00,,2013-08-23 20:42:00,
2013-08-23 14:52:00,82.0,51.0,29.78,SW,217,15.0,26.0,34,0.00,,,0.00,,2013-08-23 20:52:00,
2013-08-23 15:11:00,82.0,51.0,29.76,SW,234,16.0,23.0,34,0.00,,,0.00,,2013-08-23 21:11:00,
2013-08-23 15:22:00,84.0,50.0,29.75,SW,223,18.0,24.0,31,0.00,,,0.00,,2013-08-23 21:22:00,
2013-08-23 15:44:00,83.0,50.0,29.75,South,184,10.0,23.0,32,0.00,,,0.00,,2013-08-23 21:44:00,
2013-08-23 15:54:00,83.0,50.0,29.75,South,183,10.0,18.0,32,0.00,,,0.00,,2013-08-23 21:54:00,
2013-08-23 16:13:00,83.0,49.0,29.74,SSW,196,12.0,25.0,31,0.00,,,0.00,,2013-08-23 22:13:00,
2013-08-23 16:24:00,84.0,50.0,29.73,WSW,240,12.0,21.0,31,0.00,,,0.00,,2013-08-23 22:24:00,
2013-08-23 16:43:00,83.0,49.0,29.73,SW,214,15.0,26.0,31,0.00,,,0.00,,2013-08-23 22:43:00,
2013-08-23 16:53:00,84.0,50.0,29.72,SSW,204,18.0,24.0,31,0.00,,,0.00,,2013-08-23 22:53:00,
2013-08-23 17:12:00,83.0,49.0,29.72,South,182,18.0,31.0,31,0.00,,,0.00,,2013-08-23 23:12:00,
2013-08-23 17:22:00,83.0,51.0,29.72,North,360,13.0,21.0,33,0.00,,,0.00,,2013-08-23 23:22:00,
2013-08-23 17:43:00,83.0,50.0,29.72,SE,129,8.0,20.0,32,0.00,,,0.00,,2013-08-23 23:43:00,
2013-08-23 17:54:00,83.0,48.0,29.72,South,184,11.0,16.0,30,0.00,,,0.00,,2013-08-23 23:54:00,
2013-08-23 18:11:00,83.0,48.0,29.71,South,169,9.0,13.0,30,0.00,,,0.00,,2013-08-24 00:11:00,
2013-08-23 18:22:00,83.0,50.0,29.70,SSE,157,16.0,20.0,32,0.00,,,0.00,,2013-08-24 00:22:00,
2013-08-23 18:43:00,83.0,49.0,29.70,South,188,18.0,23.0,31,0.00,,,0.00,,2013-08-24 00:43:00,
2013-08-23 18:53:00,82.0,51.0,29.70,SSE,147,22.0,29.0,34,0.00,,,0.00,,2013-08-24 00:53:00,
2013-08-23 19:11:00,81.0,50.0,29.70,SSE,153,27.0,32.0,34,0.00,,,0.00,,2013-08-24 01:11:00,
2013-08-23 19:22:00,81.0,50.0,29.70,SSE,154,21.0,27.0,34,0.00,,,0.00,,2013-08-24 01:22:00,
2013-08-23 19:42:00,81.0,49.0,29.71,SSE,160,14.0,25.0,33,0.00,,,0.00,,2013-08-24 01:42:00,
2013-08-23 19:53:00,78.0,52.0,29.71,SSE,153,24.0,32.0,40,0.00,,,0.00,,2013-08-24 01:53:00,
2013-08-23 20:12:00,77.0,51.0,29.72,SSE,168,19.0,24.0,41,0.00,,,0.00,,2013-08-24 02:12:00,
2013-08-23 20:22:00,77.0,53.0,29.73,SSE,168,14.0,24.0,43,0.00,,,0.00,,2013-08-24 02:22:00,
2013-08-23 20:42:00,76.0,52.0,29.74,South,169,10.0,19.0,43,0.00,,,0.00,,2013-08-24 02:42:00,
2013-08-23 20:52:00,76.0,52.0,29.75,South,181,8.0,12.0,43,0.00,,,0.00,,2013-08-24 02:52:00,
2013-08-23 21:12:00,76.0,52.0,29.76,SSW,202,7.0,13.0,43,0.00,,,0.00,,2013-08-24 03:12:00,
2013-08-23 21:22:00,76.0,51.0,29.77,South,190,12.0,15.0,42,0.00,,,0.00,,2013-08-24 03:22:00,
2013-08-23 21:44:00,76.0,51.0,29.78,South,169,9.0,17.0,41,0.00,,,0.00,,2013-08-24 03:44:00,
2013-08-23 21:54:00,76.0,51.0,29.78,South,178,8.0,13.0,41,0.00,,,0.00,,2013-08-24 03:54:00,
2013-08-23 22:14:00,76.0,51.0,29.78,SSW,201,6.0,8.0,42,0.00,,,0.00,,2013-08-24 04:14:00,
2013-08-23 22:24:00,76.0,51.0,29.79,SSW,198,8.0,11.0,42,0.00,,,0.00,,2013-08-24 04:24:00,
2013-08-23 22:44:00,75.0,52.0,29.80,SSW,198,2.0,7.0,44,0.00,,,0.00,,2013-08-24 04:44:00,
2013-08-23 22:53:00,76.0,51.0,29.80,South,171,6.0,10.0,42,0.00,,,0.00,,2013-08-24 04:53:00,
2013-08-23 23:13:00,76.0,51.0,29.80,SSE,150,3.0,12.0,41,0.00,,,0.00,,2013-08-24 05:13:00,
2013-08-23 23:23:00,75.0,52.0,29.81,South,185,9.0,13.0,44,0.00,,,0.00,,2013-08-24 05:23:00,
2013-08-23 23:43:00,74.0,51.0,29.81,South,182,9.0,13.0,44,0.00,,,0.00,,2013-08-24 05:43:00,
2013-08-23 23:53:00,74.0,52.0,29.81,South,175,7.0,13.0,46,0.00,,,0.00,,2013-08-24 05:53:00,